STARLINK-32337, 61643

Orbit data source: Space-Track

STARLINK-32337, 61643 is a payload satellite owned by SpaceX/Seattle (US) in LEO that was launched on Wed, 23 Oct 2024 UTC via an FALCON 9 launch vehicle from the Air Force Eastern Test Range (AFETR). Payload-class satellites include a variety of spacecraft equipped with specific instruments for various scientific and technological missions. These include communications satellites like Starlink; space stations such as the ISS; scientific satellites like the Hubble; Earth observation satellites from companies like Planet Labs, Umbra, and HawkEye 360; GPS; miniature CubeSats for education and research; and military/defense satellites.

Loading next visibility...
Identifier
61643, 2024-191Y
Orbit
LEO
Country
Flag of USUS
Related business
Manufacturer
SpaceX/Seattle
Mission
Operational Commercial Communications
Bus & Motor
STARLINK V2M, Unknown motor
Mass
730 kg wet, ~700 kg dry
Launch date (UTC)
2024-10-23 (2 years ago)
Launch vehicle
FALCON 9
Launch site
Air Force Eastern Test Range (AFETR)
Object type
Payload
Rocket body
Debris
Shape & HBR
Box + 2 Pan, 17.7 m
Radar Cross Section
33.884 m², Large (>1 m²)

Expand to show TLE details & history
Last TLE update: 6 hours ago

TLE from 6 hours ago
0 STARLINK-32337
1 61643U 24191Y   26221.80104654  .00000379  00000-0  23303-4 0  9992
2 61643  43.0056   9.7377 0001635 277.5003  82.5663 15.27581283101714
Epoch: 2026-08-09T19:13Z
TLE epoch observation values (Epoch: 2026-08-09T19:13:30.421Z)
Latitude
Longitude
123.06812°
Altitude
482.676 km
Speed
7.626 km/s
True Right ascension
00h 38m 57s
True Declination
0° 00' 00"
Sunlit
Object was in full shadow at epoch
Visualization orbit readout
Latitude
Unknown
Longitude
Unknown
Altitude
Unknown
Speed
Unknown
Apparent Right ascension
Unknown
Apparent Declination
Unknown
Sunlit
N/A
Visualization observer readout
Local Sidereal Time
15:44:57
Azimuth
Unknown
Elevation
Unknown
Doppler factor
Unknown
Orbital elements
Apogee altitude
486.112 km
Perigee altitude
483.867 km
Semi-major axis
6,863.126 km
Eccentricity
0.00016
Inclination
43.0056°
RAAN
9.7377°
Arg. of periapsis
277.5003°
True anomaly
82.58488°
Mean anomaly
82.5663°
Eccentric anomaly
82.57559°
Mean motion
3.81733 °/min
Orbital period
94.31 mins
BSTAR
0.000023303
Loading maneuver chart data...
Computing Atmospheric mass density...
Loading historical data...
Loading historical data...
Loading historical data...
Loading historical data...
Loading historical data...
Loading historical data...
Loading historical data...

Documentation

Showing up to 5 results
|